• In Hungary
  • List of Countries
  • For 7 days
  • Water Temperature
  • Satellite Maps
  • Weather Map
  • News
  • Weather Widgets
  • user-avatar
    Login

    Hourly Weather Peredovo

    Today, 24 June, Sunday

    Time Temperature Precipitation Wind Pressure Humidity
    00:00 +14°C° 0.3 mm 3 mps 743 mmHg 94%
    01:00 +14°C° 0.3 mm 3 mps 743 mmHg 95%
    02:00 +16°C° 0 mm 2 mps 742 mmHg 98%
    03:00 +16°C° 0.1 mm 2 mps 742 mmHg 98%
    04:00 +17°C° 0.1 mm 2 mps 742 mmHg 97%
    05:00 +18°C° 0.1 mm 3 mps 742 mmHg 97%
    06:00 +20°C° 0 mm 3 mps 742 mmHg 92%
    07:00 +22°C° 0 mm 3 mps 742 mmHg 86%
    08:00 +25°C° 0 mm 3 mps 741 mmHg 78%
    09:00 +27°C° 0 mm 3 mps 741 mmHg 71%
    10:00 +28°C° 0 mm 4 mps 741 mmHg 64%
    11:00 +30°C° 0 mm 4 mps 741 mmHg 57%
    12:00 +29°C° 0.3 mm 5 mps 741 mmHg 59%
    13:00 +29°C° 0.3 mm 5 mps 741 mmHg 61%
    14:00 +29°C° 0.3 mm 5 mps 741 mmHg 63%
    15:00 +28°C° 0 mm 5 mps 742 mmHg 66%
    16:00 +26°C° 0 mm 4 mps 742 mmHg 69%
    17:00 +25°C° 0 mm 4 mps 743 mmHg 72%
    18:00 +22°C° 0 mm 4 mps 743 mmHg 76%
    19:00 +20°C° 0 mm 3 mps 743 mmHg 81%
    20:00 +19°C° 0 mm 3 mps 744 mmHg 85%
    21:00 +17°C° 0 mm 2 mps 744 mmHg 87%
    22:00 +16°C° 0 mm 2 mps 745 mmHg 89%
    23:00 +15°C° 0 mm 2 mps 745 mmHg 91%

    Tomorrow, 25 June, Monday

    Time Temperature Precipitation Wind Pressure Humidity
    00:00 +14°C° 0 mm 2 mps 745 mmHg 91%
    01:00 +13°C° 0 mm 2 mps 746 mmHg 91%
    02:00 +12°C° 0 mm 2 mps 746 mmHg 90%
    03:00 +13°C° 0 mm 2 mps 746 mmHg 89%
    04:00 +13°C° 0 mm 2 mps 747 mmHg 88%
    05:00 +13°C° 0 mm 2 mps 747 mmHg 86%
    06:00 +15°C° 0 mm 2 mps 747 mmHg 77%
    07:00 +16°C° 0 mm 2 mps 747 mmHg 69%
    08:00 +18°C° 0 mm 2 mps 748 mmHg 60%
    09:00 +19°C° 0 mm 2 mps 748 mmHg 55%
    10:00 +21°C° 0 mm 2 mps 748 mmHg 51%
    11:00 +23°C° 0 mm 2 mps 748 mmHg 46%
    12:00 +24°C° 0 mm 2 mps 748 mmHg 44%
    13:00 +24°C° 0 mm 2 mps 748 mmHg 43%
    14:00 +25°C° 0 mm 2 mps 749 mmHg 41%
    15:00 +25°C° 0 mm 2 mps 749 mmHg 44%
    16:00 +25°C° 0 mm 2 mps 749 mmHg 46%
    17:00 +24°C° 0 mm 2 mps 749 mmHg 49%
    18:00 +22°C° 0 mm 1 mps 749 mmHg 57%
    19:00 +21°C° 0 mm 1 mps 750 mmHg 64%
    20:00 +19°C° 0 mm 1 mps 750 mmHg 72%
    21:00 +18°C° 0 mm 1 mps 750 mmHg 75%
    22:00 +16°C° 0 mm 1 mps 750 mmHg 78%
    23:00 +15°C° 0 mm 1 mps 751 mmHg 82%

    Day after tomorrow, 26 June, Tuesday

    Time Temperature Precipitation Wind Pressure Humidity
    00:00 +14°C° 0 mm 1 mps 751 mmHg 84%
    01:00 +13°C° 0 mm 1 mps 751 mmHg 87%
    02:00 +13°C° 0 mm 1 mps 752 mmHg 89%
    03:00 +14°C° 0 mm 1 mps 752 mmHg 87%
    04:00 +15°C° 0 mm 1 mps 752 mmHg 84%
    05:00 +15°C° 0 mm 0 mps 753 mmHg 81%
    06:00 +17°C° 0 mm 0 mps 753 mmHg 74%
    07:00 +21°C° 0 mm 1 mps 753 mmHg 67%
    08:00 +23°C° 0 mm 1 mps 753 mmHg 60%
    09:00 +24°C° 0 mm 1 mps 753 mmHg 55%
    10:00 +25°C° 0 mm 1 mps 753 mmHg 51%
    11:00 +26°C° 0 mm 1 mps 753 mmHg 46%
    12:00 +26°C° 0 mm 1 mps 753 mmHg 45%
    13:00 +27°C° 0 mm 1 mps 753 mmHg 43%
    14:00 +27°C° 0 mm 1 mps 753 mmHg 42%
    15:00 +27°C° 0 mm 1 mps 753 mmHg 46%
    16:00 +26°C° 0 mm 1 mps 753 mmHg 49%
    17:00 +26°C° 0 mm 1 mps 753 mmHg 53%
    18:00 +22°C° 0 mm 0 mps 753 mmHg 58%
    19:00 +20°C° 0 mm 0 mps 753 mmHg 64%
    20:00 +18°C° 0 mm 0 mps 754 mmHg 70%
    21:00 +17°C° 0 mm 0 mps 754 mmHg 73%
    22:00 +16°C° 0 mm 0 mps 754 mmHg 75%
    23:00 +15°C° 0 mm 0 mps 754 mmHg 78%

    27 June, Wednesday

    Time Temperature Precipitation Wind Pressure Humidity
    00:00 +15°C° 0 mm 0 mps 754 mmHg 79%
    01:00 +14°C° 0 mm 0 mps 754 mmHg 79%
    02:00 +15°C° 0 mm 1 mps 754 mmHg 79%
    03:00 +16°C° 0 mm 1 mps 755 mmHg 78%
    04:00 +18°C° 0 mm 1 mps 755 mmHg 77%
    05:00 +19°C° 0 mm 1 mps 755 mmHg 76%
    06:00 +21°C° 0 mm 1 mps 755 mmHg 70%
    07:00 +23°C° 0 mm 1 mps 755 mmHg 63%
    08:00 +25°C° 0 mm 1 mps 755 mmHg 56%
    09:00 +26°C° 0 mm 1 mps 755 mmHg 51%
    10:00 +27°C° 0 mm 1 mps 755 mmHg 47%
    11:00 +28°C° 0 mm 1 mps 755 mmHg 42%
    12:00 +28°C° 0 mm 1 mps 755 mmHg 41%
    13:00 +29°C° 0 mm 1 mps 755 mmHg 40%
    14:00 +29°C° 0 mm 2 mps 755 mmHg 39%
    15:00 +28°C° 0 mm 1 mps 754 mmHg 42%
    16:00 +28°C° 0 mm 1 mps 754 mmHg 46%
    17:00 +27°C° 0 mm 1 mps 754 mmHg 50%
    18:00 +25°C° 0 mm 1 mps 754 mmHg 56%
    19:00 +23°C° 0 mm 1 mps 754 mmHg 62%
    20:00 +21°C° 0 mm 1 mps 754 mmHg 69%
    21:00 +20°C° 0 mm 1 mps 755 mmHg 70%
    22:00 +19°C° 0 mm 1 mps 755 mmHg 71%
    23:00 +16°C° 0 mm 0 mps 755 mmHg 72%

    28 June, Thursday

    Time Temperature Precipitation Wind Pressure Humidity
    00:00 +15°C° 0 mm 0 mps 755 mmHg 73%
    01:00 +16°C° 0 mm 1 mps 755 mmHg 74%
    02:00 +16°C° 0 mm 1 mps 756 mmHg 75%
    03:00 +16°C° 0 mm 1 mps 756 mmHg 75%
    04:00 +18°C° 0 mm 1 mps 756 mmHg 75%
    05:00 +19°C° 0 mm 1 mps 756 mmHg 75%
    06:00 +21°C° 0 mm 1 mps 756 mmHg 68%
    07:00 +23°C° 0 mm 1 mps 756 mmHg 62%
    08:00 +25°C° 0 mm 1 mps 756 mmHg 55%
    09:00 +27°C° 0 mm 1 mps 756 mmHg 51%
    10:00 +28°C° 0 mm 2 mps 755 mmHg 46%
    11:00 +29°C° 0 mm 2 mps 755 mmHg 41%
    12:00 +29°C° 0 mm 2 mps 755 mmHg 41%
    13:00 +29°C° 0 mm 2 mps 754 mmHg 41%
    14:00 +29°C° 0 mm 2 mps 754 mmHg 41%
    15:00 +29°C° 0 mm 2 mps 754 mmHg 44%
    16:00 +29°C° 0 mm 2 mps 753 mmHg 46%
    17:00 +28°C° 0 mm 2 mps 753 mmHg 49%
    18:00 +26°C° 0 mm 2 mps 753 mmHg 56%
    19:00 +24°C° 0 mm 2 mps 753 mmHg 63%
    20:00 +21°C° 0 mm 2 mps 752 mmHg 69%
    21:00 +20°C° 0 mm 2 mps 752 mmHg 69%
    22:00 +19°C° 0 mm 2 mps 752 mmHg 69%
    23:00 +18°C° 0 mm 2 mps 752 mmHg 69%

    29 June, Friday

    Time Temperature Precipitation Wind Pressure Humidity
    00:00 +18°C° 0 mm 2 mps 752 mmHg 72%
    01:00 +17°C° 0 mm 2 mps 752 mmHg 76%
    02:00 +17°C° 0 mm 2 mps 752 mmHg 79%
    03:00 +17°C° 0 mm 2 mps 752 mmHg 78%
    04:00 +18°C° 0 mm 2 mps 752 mmHg 77%
    05:00 +19°C° 0 mm 2 mps 751 mmHg 77%
    06:00 +21°C° 0 mm 3 mps 751 mmHg 71%
    07:00 +24°C° 0 mm 3 mps 751 mmHg 65%
    08:00 +26°C° 0 mm 3 mps 751 mmHg 59%
    09:00 +27°C° 0 mm 4 mps 750 mmHg 54%
    10:00 +28°C° 0 mm 4 mps 750 mmHg 49%
    11:00 +29°C° 0 mm 4 mps 750 mmHg 44%
    12:00 +30°C° 0 mm 4 mps 749 mmHg 43%
    13:00 +30°C° 0 mm 5 mps 749 mmHg 43%
    14:00 +30°C° 0 mm 5 mps 748 mmHg 43%
    15:00 +30°C° 0 mm 4 mps 748 mmHg 46%
    16:00 +30°C° 0 mm 4 mps 747 mmHg 49%
    17:00 +29°C° 0 mm 4 mps 747 mmHg 51%
    18:00 +27°C° 0.1 mm 4 mps 747 mmHg 59%
    19:00 +26°C° 0.1 mm 4 mps 746 mmHg 67%
    20:00 +24°C° 0.1 mm 3 mps 746 mmHg 75%
    21:00 +22°C° 0.3 mm 3 mps 746 mmHg 79%
    22:00 +21°C° 0.3 mm 3 mps 746 mmHg 83%
    23:00 +20°C° 0.3 mm 3 mps 746 mmHg 88%
    Show more